Regional Weather Roundup
Issued by NWS

Current Version | Previous Version | Text Only | Print | Product List | Glossary On
Versions: 1 2 3 4 5 6 7 8 9 10 11 12 13 14 15 16 17 18 19 20 21 22 23 24 25 26 27 28 29 30 31 32 33 34 35 36 37 38 39 40 41 42 43 44 45 46 47 48 49 50
000
ASUS43 KOAX 251110
RWRNE

WEATHER ROUNDUP FOR NEBRASKA
NATIONAL WEATHER SERVICE OMAHA NE
600 AM CDT TUE JUL 25 2017

NOTES: SATELLITE DATA IS BEING USED TO AUGMENT CLOUD COVER ABOVE
       12000 FEET.
       "FAIR" INDICATES FEW OR NO CLOUDS BELOW 12,000 FEET WITH NO
       SIGNIFICANT WEATHER AND/OR OBSTRUCTIONS TO VISIBILITY.


NEZ001>004-019>022-054>056-251200-
NEBRASKA PANHANDLE

CITY           SKY/WX    TMP DP  RH WIND       PRES   REMARKS
SCOTTSBLUFF    CLOUDY    75  56  51 N6        29.94S
ALLIANCE       PTCLDY    68  58  70 SE8       29.94R
CHADRON        CLEAR     72  55  55 S7        29.86S
GORDON         FAIR      67  59  75 CALM      29.91S
KIMBALL        CLOUDY    67  58  73 CALM      30.03S
SIDNEY         CLOUDY    74  60  61 SW14      30.00R
$$

NEZ057>060-069>072-079>082-251200-
SOUTHWEST NEBRASKA

CITY           SKY/WX    TMP DP  RH WIND       PRES   REMARKS
NORTH PLATTE   CLEAR     76  60  57 SE7       29.96R
IMPERIAL       PTCLDY    72  62  71 S7        29.98R
LEXINGTON      PTCLDY    70  60  70 S8        29.98S
MCCOOK         CLEAR     74  62  66 SW5       29.97R
OGALLALA       PTCLDY    73  62  67 SW5       29.96R
$$

NEZ005>010-023>029-035>040-094-251200-
NORTH CENTRAL NEBRASKA

CITY           SKY/WX    TMP DP  RH WIND       PRES   REMARKS
VALENTINE      CLEAR     69  57  65 CALM      29.88S
AINSWORTH      CLEAR     74  56  54 S10       29.90S
BROKEN BOW     CLEAR     72  58  61 S7        29.97R
O`NEILL        CLEAR     73  65  76 S13       29.91S
ORD            CLEAR     74  61  63 S6        29.95R
THEDFORD       CLEAR     77  58  51 S10       29.95R
$$

NEZ041-046>049-061>064-073>077-083>087-251200-
SOUTH CENTRAL NEBRASKA

CITY           SKY/WX    TMP DP  RH WIND       PRES   REMARKS
GRAND ISLAND   CLEAR     72  68  87 S9        29.98S
AURORA         CLEAR     72  70  93 S12       29.99R
HASTINGS       CLEAR     72  65  78 S7        30.00S
HEBRON         CLEAR     73  70  91 S6        30.00S
HOLDREGE       CLEAR     70  61  74 S5        30.00R
KEARNEY        CLEAR     70  64  81 S9        29.99S
YORK           CLEAR     72  72 100 S7        29.99R
$$

NEZ011>018-030>034-042>045-251200-
NORTHEAST NEBRASKA

CITY           SKY/WX    TMP DP  RH WIND       PRES   REMARKS
NORFOLK        CLEAR     73  69  87 S9        29.95R
ALBION         CLEAR     73  69  86 S6        29.96R
BLAIR          CLEAR     73  66  79 S18       29.98S
COLUMBUS       CLEAR     74  70  87 S8        29.97R
FREMONT        CLEAR     72  66  82 SE12      29.98S
TEKAMAH        PTCLDY    71  65  81 S7        29.97R
WAYNE          PTCLDY    71  70  98 S6        29.95S
$$

NEZ050>053-065>068-078-088>093-251200-
SOUTHEAST NEBRASKA

CITY           SKY/WX    TMP DP  RH WIND       PRES   REMARKS
LINCOLN        CLEAR     72  68  87 S9        29.99R
OMAHA EPPLEY   PTCLDY    74  64  71 S18       29.99S
BEATRICE       CLEAR     73  70  88 S9        30.00S
FALLS CITY     CLEAR     69  67  93 SE7       30.03R
NEBRASKA CITY  CLEAR     71  70  98 S10       30.02S
PLATTSMOUTH    CLEAR     71  66  84 SE14      30.01S
$$

NEZ044-045-051>053-067-251200-
OMAHA AREA

CITY           SKY/WX    TMP DP  RH WIND       PRES   REMARKS
OMAHA EPPLEY   PTCLDY    74  64  71 S18       29.99S
BLAIR          CLEAR     73  66  79 S18       29.98S
FREMONT        CLEAR     72  66  82 SE12      29.98S
MILLARD        CLEAR     74  69  84 SE10      30.00S
OFFUTT AFB     CLEAR     72  66  80 SE10      29.99F
PLATTSMOUTH    CLEAR     71  66  84 SE14      30.01S
WAHOO          FAIR      70  67  92 SE10      29.99S
$$




USA.gov is the U.S. government's official web portal to all federal, state and local government web resources and services.